Hebron, KY

3:26 AM EST on February 06, 2016 (GMT -0500)
Cincinnati-Northern KY International

Weather History for KCVG - November, 2010

Change the Weather History Date:

Friday, November 12, 2010

  Actual Average Record
Temperature  
Mean Temperature 53 °F 47 °F  
Max Temperature 71 °F 56 °F 76 °F (1945)
Min Temperature 34 °F 38 °F 16 °F (1996)
Degree Days  
Heating Degree Days 12 18  
Month to date heating degree days 215 195  
Since 1 July heating degree days 480 557  
Cooling Degree Days 0 0  
Month to date cooling degree days 0 0  
Year to date cooling degree days 1479 1121  
Growing Degree Days 6 (Base 50)    
Moisture  
Dew Point 34 °F    
Average Humidity 52    
Maximum Humidity 79    
Minimum Humidity 24    
Precipitation  
Precipitation 0.00 in 0.11 in 1.68 in (1925)
Month to date precipitation 0.02 1.27  
Year to date precipitation 27.98 36.99  
Snow  
Snow 0.00 in 0.00 in 0.70 in (2013)
Month to date snowfall 0.0 0.1  
Since 1 July snowfall 0.0 0.5  
Since 1 September snowfall 0.0 0.5  
Snow Depth 0.00 in    
Sea Level Pressure  
Sea Level Pressure 30.30 in    
Wind  
Wind Speed 2 mph (ESE)    
Max Wind Speed 9 mph    
Max Gust Speed 13 mph    
Visibility 10 miles    
Events      
T = Trace of Precipitation, MM = Missing Value Source: NWS Daily Summary

Daily Weather History Graph

Daily Weather History Graph

Search for Another Location

Airport or City:

Trip Planner

Search our weather history database for the weather conditions in past years. The results will help you decide how hot, cold, wet, or windy it might be!

Date:

Astronomy

Nov. 12, 2010 Rise Set
Actual Time 7:18 AM EST 5:26 PM EST
Civil Twilight 6:49 AM EST 5:55 PM EST
Nautical Twilight 6:17 AM EST 6:27 PM EST
Astronomical Twilight 5:46 AM EST 6:58 PM EST
Moon 12:47 PM EST (11/12) 11:32 PM EST (11/12)
Length of Visible Light 11h 05m
Length of Day
10h 08m
Waxing Crescent, 41% of the Moon is Illuminated
Nov 12
Waxing Crescent
Nov 13
First Quarter
Nov 21
Full
Nov 28
Last Quarter
Dec 5
New

Hourly Weather History & Observations

Time (EST) Temp. Windchill Dew Point Humidity Pressure Visibility Wind Dir Wind Speed Gust Speed Precip Events Conditions
12:52 AM 50.0 °F - 35.1 °F 57% 30.36 in 10.0 mi Calm Calm - N/A   Clear
1:52 AM 48.9 °F - 34.0 °F 56% 30.35 in 10.0 mi Calm Calm - N/A   Clear
2:52 AM 46.0 °F - 35.1 °F 66% 30.35 in 10.0 mi Calm Calm - N/A   Clear
3:52 AM 44.1 °F - 36.0 °F 73% 30.35 in 10.0 mi Calm Calm - N/A   Clear
4:52 AM 41.0 °F 39.0 °F 36.0 °F 82% 30.37 in 9.0 mi NE 3.5 mph - N/A   Clear
5:52 AM 42.1 °F - 36.0 °F 79% 30.36 in 9.0 mi Calm Calm - N/A   Clear
6:52 AM 44.1 °F - 35.1 °F 71% 30.36 in 8.0 mi Calm Calm - N/A   Clear
7:52 AM 41.0 °F 39.0 °F 34.0 °F 76% 30.37 in 8.0 mi East 3.5 mph - N/A   Scattered Clouds
8:52 AM 48.9 °F - 39.0 °F 69% 30.37 in 8.0 mi Calm Calm - N/A   Scattered Clouds
9:52 AM 57.0 °F - 37.9 °F 49% 30.37 in 10.0 mi Calm Calm - N/A   Scattered Clouds
10:52 AM 62.1 °F - 37.0 °F 39% 30.35 in 10.0 mi SE 3.5 mph - N/A   Scattered Clouds
11:52 AM 66.9 °F - 35.1 °F 31% 30.34 in 10.0 mi SE 5.8 mph - N/A   Scattered Clouds
12:52 PM 68.0 °F - 34.0 °F 28% 30.31 in 10.0 mi SSE 5.8 mph - N/A   Partly Cloudy
1:52 PM 69.1 °F - 32.0 °F 25% 30.28 in 10.0 mi ENE 5.8 mph - N/A   Partly Cloudy
2:52 PM 70.0 °F - 32.0 °F 25% 30.26 in 10.0 mi Calm Calm - N/A   Clear
3:52 PM 70.0 °F - 32.0 °F 25% 30.25 in 10.0 mi ESE 4.6 mph - N/A   Clear
4:52 PM 68.0 °F - 30.0 °F 24% 30.25 in 10.0 mi Calm Calm - N/A   Clear
5:52 PM 62.1 °F - 33.1 °F 34% 30.25 in 10.0 mi ENE 4.6 mph - N/A   Clear
6:52 PM 55.9 °F - 34.0 °F 44% 30.25 in 10.0 mi Calm Calm - N/A   Clear
7:52 PM 55.0 °F - 33.1 °F 43% 30.25 in 10.0 mi Calm Calm - N/A   Clear
8:52 PM 53.6 °F - 33.8 °F 47% 30.24 in 10.0 mi Calm Calm - N/A   Clear
9:52 PM 48.9 °F - 33.1 °F 54% 30.24 in 10.0 mi Calm Calm - N/A   Clear
10:52 PM 53.1 °F - 33.1 °F 47% 30.21 in 10.0 mi ESE 3.5 mph - N/A   Clear
11:52 PM 51.8 °F - 33.8 °F 50% 30.21 in 10.0 mi Calm Calm - N/A   Clear